(187617) = 2007 AE18

Discovered at Catalina on 2007-01-08 by CSS.

Orbit

Orbit type: Main Belt

Note: WebGL enabled browser required.

epoch2024-03-31.0
epoch JD2460400.5
perihelion date2018-11-23.93398
perihelion JD2458446.43398
argument of perihelion (°)97.28784
ascending node (°)82.67035
inclination (°)11.18964
eccentricity0.1042907
perihelion distance (AU)2.7805843
Tisserand w.r.t. Jupiter3.2
ΔV w.r.t. Earth (km/sec)10.9
semimajor axis (AU)3.1043380
mean anomaly (°)352.11910
mean daily motion (°/day)0.18019820
aphelion distance (AU)3.428
period (years)5.47
P-vector [x]-0.98129764
P-vector [y]-0.07810533
P-vector [z]0.17593888
Q-vector [x]-0.00312162
Q-vector [y]-0.90740751
Q-vector [z]-0.42024025
absolute magnitude15.44
phase slope0.15
uncertainty0
referenceMPEC 2024-F28
observations used529
oppositions16
arc length (days)8510
first opposition used2000
last opposition used2024
residual rms (arc-secs)0.69
perturbers coarse indicatorM-v
perturbers precise indicator003Ek
first observation date used2000-11-29.0
last observation date used2024-03-18.0
computer nameMPCLINUX
JD of orbit computation2456847.777831
perihelion JD uncertainty (days)1.9144E-04
argument of perihelion uncertainty (°)4.5746E-05
ascending node uncertainty (°)2.7357E-05
inclination uncertainty (°)6.2340E-06
eccentricity uncertainty 5.3133E-08
perihelion distance uncertainty (AU)1.6223E-07
Minimum Orbit Intersection Distances (in AU)
for orbit epoch: 2460400.5, reference: E2024-GB3
Mercury2.377
Venus2.06944
Earth1.812
Mars1.17935
Jupiter1.6672
Saturn5.85927
Uranus15.6913
Neptune26.4678

Observations

514 total observations over interval: 2000 11 29.42099 – 2024 03 18.382889
These data are available for download (format description).

Date (UT) J2000 RA J2000 Dec Magn Location Ref
2000 11 29.42099 04 43 17.30 +18 27 54.3 20.0 V 691 – Steward Observatory, Kitt Peak-Spacewatch MPS 206237
2000 11 29.44286 04 43 16.06 +18 27 55.6 20.1 V 691 – Steward Observatory, Kitt Peak-Spacewatch MPS 206237
2000 11 29.46498 04 43 14.84 +18 27 57.5 19.7 V 691 – Steward Observatory, Kitt Peak-Spacewatch MPS 206237
2002 02 10.32502 11 31 18.39 +20 31 15.3 19.5   704 – Lincoln Laboratory ETS, New Mexico MPS 213857
2002 02 10.33940 11 31 17.96 +20 31 20.7 19.7   704 – Lincoln Laboratory ETS, New Mexico MPS 213857
2002 02 10.35385 11 31 17.52 +20 31 27.2 19.9   704 – Lincoln Laboratory ETS, New Mexico MPS 213857
2002 02 10.36897 11 31 17.14 +20 31 35.2 19.8   704 – Lincoln Laboratory ETS, New Mexico MPS 213857
2002 02 10.38581 11 31 16.48 +20 31 41.6 19.5   704 – Lincoln Laboratory ETS, New Mexico MPS 213857
2002 03 20.29613 11 03 51.95 +24 05 47.2 18.9   704 – Lincoln Laboratory ETS, New Mexico MPS 213857
2002 03 20.30866 11 03 51.36 +24 05 49.0 19.2   704 – Lincoln Laboratory ETS, New Mexico MPS 213857
2002 03 20.32118 11 03 50.85 +24 05 49.7 19.7   704 – Lincoln Laboratory ETS, New Mexico MPS 213857
2002 03 20.33433 11 03 50.24 +24 05 52.0 19.7   704 – Lincoln Laboratory ETS, New Mexico MPS 213857
2002 03 20.34741 11 03 49.60 +24 05 53.3 19.4   704 – Lincoln Laboratory ETS, New Mexico MPS 213857
2006 10 23.40809 07 57 16.45 +23 40 42.3 21.4 V G96 – Mt. Lemmon Survey MPS 206237
2006 10 23.41557 07 57 16.81 +23 40 43.1 21.1 V G96 – Mt. Lemmon Survey MPS 206237
2006 10 23.42301 07 57 17.13 +23 40 43.5 21.0 V G96 – Mt. Lemmon Survey MPS 206237
2006 10 23.43044 07 57 17.49 +23 40 44.4 21.7 V G96 – Mt. Lemmon Survey MPS 206237
2006 11 02.39701 08 04 15.42 +23 55 32.4 20.9 V G96 – Mt. Lemmon Survey MPS 206237
2006 11 02.40202 08 04 15.67 +23 55 33.2 20.8 V G96 – Mt. Lemmon Survey MPS 206237
2006 11 02.40698 08 04 15.78 +23 55 33.4 21.1 V G96 – Mt. Lemmon Survey MPS 206237
2006 11 02.41203 08 04 15.99 +23 55 34.7 21.0 V G96 – Mt. Lemmon Survey MPS 206237
2006 12 10.47349 08 10 53.44 +26 16 08.4   691 – Steward Observatory, Kitt Peak-Spacewatch MPS 206237
2006 12 10.49088 08 10 53.08 +26 16 14.1   691 – Steward Observatory, Kitt Peak-Spacewatch MPS 206237
2006 12 10.50835 08 10 52.73 +26 16 19.2   691 – Steward Observatory, Kitt Peak-Spacewatch MPS 206237
2006 12 23.41005 08 04 48.43 +27 32 40.5 19.7 V 703 – Catalina Sky Survey MPS 206237
2006 12 23.41488 08 04 48.21 +27 32 43.8 19.9 V 703 – Catalina Sky Survey MPS 206237
2006 12 23.41973 08 04 48.00 +27 32 45.2 20.5 V 703 – Catalina Sky Survey MPS 206237
2006 12 23.42458 08 04 47.85 +27 32 47.7 20.0 V 703 – Catalina Sky Survey MPS 206237
2007 01 08.33339 07 52 27.26 +29 10 42.2 19.3 V 703 – Catalina Sky Survey MPS 196456
2007 01 08.34040 07 52 26.76 +29 10 44.1 19.2 V 703 – Catalina Sky Survey MPS 196456
2007 01 08.34744 07 52 26.43 +29 10 47.9 20.2 V 703 – Catalina Sky Survey MPS 196456
2007 01 08.35446 07 52 26.07 +29 10 48.8 19.4 V 703 – Catalina Sky Survey MPS 196456
2007 01 15.20357 07 46 09.48 +29 49 09.5 18.8 V 703 – Catalina Sky Survey MPS 196456
2007 01 15.21345 07 46 08.86 +29 49 12.7 18.8 V 703 – Catalina Sky Survey MPS 196456
2007 01 15.23326 07 46 07.75 +29 49 19.9 19.5 V 703 – Catalina Sky Survey MPS 196456
2008 04 04.38855 14 39 01.40 -01 15 31.9 19.4 V G96 – Mt. Lemmon Survey MPS 244784
2008 04 04.39507 14 39 01.11 -01 15 30.5 19.6 V G96 – Mt. Lemmon Survey MPS 244784
2008 04 04.40160 14 39 00.90 -01 15 29.4 19.6 V G96 – Mt. Lemmon Survey MPS 244784
2008 04 04.40831 14 39 00.61 -01 15 28.0 19.5 V G96 – Mt. Lemmon Survey MPS 244784
2008 04 04.47089 14 38 58.23 -01 15 16.0 18.9 V G96 – Mt. Lemmon Survey MPS 244784
2008 04 04.47913 14 38 57.91 -01 15 14.5 19.0 V G96 – Mt. Lemmon Survey MPS 244784
2008 04 04.48745 14 38 57.58 -01 15 12.8 18.8 V G96 – Mt. Lemmon Survey MPS 244784
2008 04 04.49569 14 38 57.30 -01 15 11.1 18.7 V G96 – Mt. Lemmon Survey MPS 244784
2008 04 05.35985 14 38 25.22 -01 12 30.4 19.5 V G96 – Mt. Lemmon Survey MPS 245805
2008 04 05.36831 14 38 24.90 -01 12 29.1 19.3 V G96 – Mt. Lemmon Survey MPS 245805
2008 04 05.37672 14 38 24.54 -01 12 27.2 19.3 V G96 – Mt. Lemmon Survey MPS 245805
2008 04 05.38513 14 38 24.25 -01 12 25.9 19.2 V G96 – Mt. Lemmon Survey MPS 245805
2008 04 27.33925 14 21 44.46 -00 19 53.7 19.2 V G96 – Mt. Lemmon Survey MPS 248190
2008 04 27.33971 14 21 44.46 -00 19 53.8 19.2 V G96 – Mt. Lemmon Survey MPS 248190
2008 04 27.34518 14 21 44.13 -00 19 53.4 19.3 V G96 – Mt. Lemmon Survey MPS 248190
2008 04 27.34564 14 21 44.13 -00 19 53.4 19.2 V G96 – Mt. Lemmon Survey MPS 248190
2008 04 27.35102 14 21 43.84 -00 19 52.7 19.2 V G96 – Mt. Lemmon Survey MPS 248190
2008 04 27.35148 14 21 43.81 -00 19 53.0 19.2 V G96 – Mt. Lemmon Survey MPS 248190
2008 04 27.35693 14 21 43.56 -00 19 52.2 19.1 V G96 – Mt. Lemmon Survey MPS 248190
2008 04 27.35738 14 21 43.52 -00 19 52.3 19.3 V G96 – Mt. Lemmon Survey MPS 248190
2008 05 01.30060 14 18 30.11 -00 15 27.3 19.3   704 – Lincoln Laboratory ETS, New Mexico MPS 248190
2008 05 01.31098 14 18 29.55 -00 15 26.2 19.2   704 – Lincoln Laboratory ETS, New Mexico MPS 248190
2008 05 01.32129 14 18 29.06 -00 15 26.5 19.8   704 – Lincoln Laboratory ETS, New Mexico MPS 248190
2008 05 01.33159 14 18 28.46 -00 15 26.1 19.5   704 – Lincoln Laboratory ETS, New Mexico MPS 248190
2008 05 01.34197 14 18 27.94 -00 15 26.1 19.6   704 – Lincoln Laboratory ETS, New Mexico MPS 248190
2008 05 31.26655 13 59 23.46 -00 54 27.9 20.1 V G96 – Mt. Lemmon Survey MPS 251358
2008 05 31.27416 13 59 23.28 -00 54 29.7 20.2 V G96 – Mt. Lemmon Survey MPS 251358
2008 05 31.28181 13 59 23.10 -00 54 31.2 20.2 V G96 – Mt. Lemmon Survey MPS 251358
2008 05 31.28938 13 59 22.92 -00 54 32.6 20.1 V G96 – Mt. Lemmon Survey MPS 251358
2010 10 08.376327 00 31 34.543 -13 13 38.88 20.91 g F51 – Pan-STARRS 1, Haleakala MPS 365176
2010 10 08.388191 00 31 34.002 -13 13 40.78 20.95 g F51 – Pan-STARRS 1, Haleakala MPS 365176
2010 10 12.365716 00 28 39.764 -13 23 49.68 20.57 r F51 – Pan-STARRS 1, Haleakala MPS 365176
2010 10 12.376968 00 28 39.274 -13 23 50.75 20.54 r F51 – Pan-STARRS 1, Haleakala MPS 365176
2011 11 24.52577 04 54 09.948 +19 02 49.93 20.6 g F51 – Pan-STARRS 1, Haleakala MPS 402134
2011 11 24.53820 04 54 09.290 +19 02 50.79 20.5 g F51 – Pan-STARRS 1, Haleakala MPS 402134
2011 11 24.55148 04 54 08.591 +19 02 51.71 20.0 r F51 – Pan-STARRS 1, Haleakala MPS 402134
2011 11 24.56328 04 54 07.963 +19 02 52.49 19.9 r F51 – Pan-STARRS 1, Haleakala MPS 402134
2011 11 30.19597 04 49 09.85 +19 09 20.1 19.8 V 691 – Steward Observatory, Kitt Peak-Spacewatch MPS 403602
2011 11 30.21375 04 49 08.87 +19 09 21.5 19.9 V 691 – Steward Observatory, Kitt Peak-Spacewatch MPS 403602
2011 11 30.23153 04 49 07.87 +19 09 23.0 19.9 V 691 – Steward Observatory, Kitt Peak-Spacewatch MPS 403602
2011 11 30.39410 04 48 58.86 +19 09 34.0 19.2 V G96 – Mt. Lemmon Survey MPS 403602
2011 11 30.40160 04 48 58.42 +19 09 34.4 19.2 V G96 – Mt. Lemmon Survey MPS 403602
2011 11 30.40914 04 48 57.99 +19 09 34.9 19.3 V G96 – Mt. Lemmon Survey MPS 403602
2011 11 30.41662 04 48 57.60 +19 09 35.6 19.0 V G96 – Mt. Lemmon Survey MPS 403602
2011 12 01.48605 04 47 59.472 +19 10 51.85 20.7 g F51 – Pan-STARRS 1, Haleakala MPS 403602
2011 12 01.49952 04 47 58.721 +19 10 52.70 20.7 g F51 – Pan-STARRS 1, Haleakala MPS 403602
2011 12 01.51285 04 47 57.969 +19 10 53.62 20.1 r F51 – Pan-STARRS 1, Haleakala MPS 403602
2011 12 01.52579 04 47 57.251 +19 10 54.35 20.2 r F51 – Pan-STARRS 1, Haleakala MPS 403602
2011 12 29.370302 04 24 17.09 +19 48 30.8 21.0 R F65 – Haleakala-Faulkes Telescope North MPS 405720
2011 12 29.373724 04 24 16.96 +19 48 31.0 20.8 R F65 – Haleakala-Faulkes Telescope North MPS 405720
2011 12 29.377224 04 24 16.80 +19 48 31.3 20.8 R F65 – Haleakala-Faulkes Telescope North MPS 405720
2012 02 26.14444 04 24 25.84 +22 26 07.4 21.1 V G96 – Mt. Lemmon Survey MPS 415836
2012 02 26.15134 04 24 26.10 +22 26 08.9 21.1 V G96 – Mt. Lemmon Survey MPS 415836
2012 02 26.15838 04 24 26.35 +22 26 10.5 21.0 V G96 – Mt. Lemmon Survey MPS 415836
2012 02 26.16535 04 24 26.64 +22 26 11.3 21.1 V G96 – Mt. Lemmon Survey MPS 415836
2013 02 07.43383 11 31 53.72 +20 18 07.2 19.9 V 703 – Catalina Sky Survey MPS 455721
